NAL605 KIND-KVLD

Flight info

Callsign NAL605
Flight time 1h 28m
Altitude FL350
Route DAWNN1 MYS KM42O GQO JAGIR WALET OTK
Aircraft B739/M-L/N

Departure

Time 2026-04-29 07:55
Airport Indianapolis International Airport (KIND)

Arrival

Time 2026-04-29 09:24
Airport Valdosta Regional Airport (KVLD)
Time Latitude Longitude Altitude Speed Heading
2026-04-29 07:43 39.71739 -86.27227 808 ft 0 kts 135°
2026-04-29 07:44 39.71748 -86.27239 808 ft 2 kts 135°
2026-04-29 07:45 39.71761 -86.27257 808 ft 3 kts 135°
2026-04-29 07:45 39.71773 -86.27277 808 ft 3 kts 102°
2026-04-29 07:45 39.71769 -86.27301 808 ft 2 kts 44°
2026-04-29 07:45 39.71768 -86.27302 808 ft 0 kts 44°
2026-04-29 07:46 39.71769 -86.27301 808 ft 0 kts 44°
2026-04-29 07:46 39.71818 -86.27306 808 ft 15 kts 324°
2026-04-29 07:46 39.71892 -86.27404 808 ft 15 kts 313°
2026-04-29 07:47 39.71960 -86.27494 808 ft 14 kts 314°
2026-04-29 07:47 39.71999 -86.27591 808 ft 11 kts 260°
2026-04-29 07:47 39.71941 -86.27675 808 ft 15 kts 221°
2026-04-29 07:47 39.71850 -86.27783 808 ft 19 kts 223°
2026-04-29 07:48 39.71749 -86.27905 808 ft 21 kts 223°
2026-04-29 07:48 39.71656 -86.28041 808 ft 19 kts 250°
2026-04-29 07:48 39.71628 -86.28201 808 ft 17 kts 234°
2026-04-29 07:48 39.71550 -86.28312 808 ft 16 kts 226°
2026-04-29 07:49 39.71467 -86.28424 808 ft 18 kts 226°
2026-04-29 07:49 39.71374 -86.28550 808 ft 21 kts 226°
2026-04-29 07:49 39.71267 -86.28694 808 ft 22 kts 225°
2026-04-29 07:49 39.71162 -86.28832 808 ft 21 kts 225°
2026-04-29 07:50 39.71063 -86.28962 808 ft 20 kts 226°
2026-04-29 07:50 39.70971 -86.29084 808 ft 18 kts 226°
2026-04-29 07:50 39.70882 -86.29202 808 ft 19 kts 224°
2026-04-29 07:50 39.70764 -86.29291 808 ft 21 kts 200°
2026-04-29 07:51 39.70640 -86.29390 808 ft 22 kts 225°
2026-04-29 07:51 39.70530 -86.29534 808 ft 23 kts 225°
2026-04-29 07:51 39.70414 -86.29685 808 ft 24 kts 225°
2026-04-29 07:51 39.70297 -86.29838 808 ft 23 kts 225°
2026-04-29 07:52 39.70185 -86.29983 808 ft 22 kts 225°
2026-04-29 07:52 39.70081 -86.30120 808 ft 21 kts 225°
2026-04-29 07:52 39.70003 -86.30221 808 ft 10 kts 225°
2026-04-29 07:52 39.69964 -86.30289 808 ft 8 kts 271°
2026-04-29 07:53 39.69986 -86.30344 808 ft 0 kts 315°
2026-04-29 07:53 39.70021 -86.30385 808 ft 11 kts 328°
2026-04-29 07:53 39.70085 -86.30366 808 ft 10 kts 42°
2026-04-29 07:54 39.70100 -86.30346 808 ft 0 kts 45°
2026-04-29 07:54 39.70103 -86.30343 808 ft 8 kts 45°
2026-04-29 07:54 39.70336 -86.30044 808 ft 86 kts 45°
2026-04-29 07:54 39.70939 -86.29273 808 ft 156 kts 44°
2026-04-29 07:55 39.71792 -86.28172 1299 ft 178 kts 46°
2026-04-29 07:55 39.72627 -86.26967 2305 ft 181 kts 48°
2026-04-29 07:55 39.73483 -86.25731 2992 ft 190 kts 48°
2026-04-29 07:55 39.74403 -86.24401 3449 ft 206 kts 48°
2026-04-29 07:56 39.75260 -86.22815 3743 ft 232 kts 66°
2026-04-29 07:56 39.75383 -86.20650 4164 ft 255 kts 101°
2026-04-29 07:56 39.74503 -86.18619 4862 ft 266 kts 135°
2026-04-29 07:56 39.72859 -86.17527 5723 ft 271 kts 168°
2026-04-29 07:57 39.70988 -86.17521 6688 ft 272 kts 186°
2026-04-29 07:57 39.69122 -86.18046 7569 ft 277 kts 196°
2026-04-29 07:57 39.67279 -86.18809 8473 ft 279 kts 198°
2026-04-29 07:57 39.65410 -86.19588 9284 ft 285 kts 198°
2026-04-29 07:58 39.63518 -86.20362 10129 ft 288 kts 197°
2026-04-29 07:58 39.61562 -86.21157 10732 ft 303 kts 197°
2026-04-29 07:58 39.59498 -86.21995 11254 ft 319 kts 197°
2026-04-29 07:58 39.57326 -86.22874 11784 ft 335 kts 197°
2026-04-29 07:59 39.55048 -86.23796 12293 ft 351 kts 197°
2026-04-29 07:59 39.52671 -86.24758 12778 ft 367 kts 197°
2026-04-29 07:59 39.50186 -86.25762 13235 ft 382 kts 197°
2026-04-29 07:59 39.47609 -86.26803 13831 ft 392 kts 197°
2026-04-29 08:00 39.44983 -86.27864 14562 ft 398 kts 197°
2026-04-29 08:00 39.42338 -86.28931 15316 ft 402 kts 197°
2026-04-29 08:00 39.39652 -86.30014 16053 ft 406 kts 197°
2026-04-29 08:00 39.36929 -86.31065 16752 ft 411 kts 194°
2026-04-29 08:01 39.34079 -86.31452 17433 ft 415 kts 180°
2026-04-29 08:01 39.31200 -86.31163 18110 ft 419 kts 174°
2026-04-29 08:01 39.28283 -86.30773 18750 ft 423 kts 174°
2026-04-29 08:01 39.25336 -86.30435 19384 ft 427 kts 175°
2026-04-29 08:02 39.22361 -86.30103 20002 ft 431 kts 175°
2026-04-29 08:02 39.19370 -86.29770 20587 ft 435 kts 175°
2026-04-29 08:02 39.16344 -86.29433 21148 ft 439 kts 175°
2026-04-29 08:02 39.13288 -86.29094 21680 ft 442 kts 175°
2026-04-29 08:03 39.10215 -86.28752 22184 ft 446 kts 175°
2026-04-29 08:03 39.07124 -86.28409 22664 ft 449 kts 175°
2026-04-29 08:03 39.04007 -86.28066 23119 ft 452 kts 175°
2026-04-29 08:03 39.00851 -86.27929 23553 ft 455 kts 179°
2026-04-29 08:04 38.97691 -86.27868 23959 ft 457 kts 179°
2026-04-29 08:04 38.94502 -86.27770 24345 ft 460 kts 178°
2026-04-29 08:04 38.91293 -86.27668 24713 ft 463 kts 178°
2026-04-29 08:04 38.88065 -86.27565 25060 ft 465 kts 178°
2026-04-29 08:05 38.84835 -86.27462 25387 ft 467 kts 178°
2026-04-29 08:05 38.81579 -86.27357 25705 ft 470 kts 178°
2026-04-29 08:05 38.78300 -86.27253 26008 ft 472 kts 178°
2026-04-29 08:05 38.75028 -86.27149 26298 ft 474 kts 178°
2026-04-29 08:06 38.71720 -86.27043 26583 ft 476 kts 178°
2026-04-29 08:06 38.68406 -86.26938 26850 ft 478 kts 178°
2026-04-29 08:06 38.65071 -86.26832 27107 ft 480 kts 178°
2026-04-29 08:06 38.61735 -86.26726 27354 ft 481 kts 178°
2026-04-29 08:07 38.58395 -86.26620 27614 ft 482 kts 178°
2026-04-29 08:07 38.55037 -86.26513 27933 ft 482 kts 178°
2026-04-29 08:07 38.51691 -86.26407 28254 ft 481 kts 178°
2026-04-29 08:07 38.48343 -86.26301 28565 ft 481 kts 178°
2026-04-29 08:08 38.45003 -86.26196 28868 ft 480 kts 178°
2026-04-29 08:08 38.41677 -86.26091 29139 ft 480 kts 178°
2026-04-29 08:08 38.38338 -86.25986 29421 ft 480 kts 178°
2026-04-29 08:08 38.35001 -86.25880 29703 ft 479 kts 178°
2026-04-29 08:09 38.31686 -86.25776 29977 ft 478 kts 178°
2026-04-29 08:09 38.28365 -86.25671 30245 ft 478 kts 178°
2026-04-29 08:09 38.25042 -86.25567 30508 ft 477 kts 178°
2026-04-29 08:09 38.21724 -86.25463 30769 ft 477 kts 178°
2026-04-29 08:10 38.18417 -86.25359 31026 ft 476 kts 178°
2026-04-29 08:10 38.15112 -86.25255 31276 ft 476 kts 178°
2026-04-29 08:10 38.11800 -86.25152 31520 ft 475 kts 178°
2026-04-29 08:10 38.08495 -86.25048 31760 ft 475 kts 178°
2026-04-29 08:11 38.05209 -86.24946 31993 ft 474 kts 178°
2026-04-29 08:11 38.01914 -86.24842 32221 ft 474 kts 178°
2026-04-29 08:11 37.98617 -86.24740 32448 ft 473 kts 178°
2026-04-29 08:11 37.95325 -86.24637 32678 ft 473 kts 178°
2026-04-29 08:12 37.92038 -86.24534 32910 ft 473 kts 178°
2026-04-29 08:12 37.88780 -86.24142 33117 ft 472 kts 169°
2026-04-29 08:12 37.85610 -86.23080 33354 ft 471 kts 162°
2026-04-29 08:12 37.82495 -86.21794 33584 ft 471 kts 162°
2026-04-29 08:13 37.79369 -86.20566 33810 ft 471 kts 163°
2026-04-29 08:13 37.76246 -86.19365 34035 ft 470 kts 163°
2026-04-29 08:13 37.73124 -86.18162 34257 ft 470 kts 163°
2026-04-29 08:13 37.69999 -86.16958 34480 ft 469 kts 163°
2026-04-29 08:14 37.66887 -86.15760 34699 ft 469 kts 163°
2026-04-29 08:14 37.63773 -86.14563 34921 ft 468 kts 163°
2026-04-29 08:14 37.57543 -86.12170 34996 ft 467 kts 163°
2026-04-29 08:15 37.51329 -86.09788 35000 ft 468 kts 163°
2026-04-29 08:15 37.45103 -86.07405 35000 ft 468 kts 163°
2026-04-29 08:16 37.38894 -86.05032 35000 ft 468 kts 163°
2026-04-29 08:16 37.32659 -86.02654 35000 ft 468 kts 163°
2026-04-29 08:17 37.26446 -86.00289 35000 ft 468 kts 163°
2026-04-29 08:17 37.20217 -85.97921 35000 ft 468 kts 163°
2026-04-29 08:18 37.14000 -85.95562 35001 ft 468 kts 163°
2026-04-29 08:18 37.07766 -85.93201 35001 ft 468 kts 163°
2026-04-29 08:19 37.01547 -85.90849 35001 ft 468 kts 163°
2026-04-29 08:19 36.95312 -85.88495 35001 ft 468 kts 163°
2026-04-29 08:20 36.89088 -85.86150 35001 ft 468 kts 163°
2026-04-29 08:20 36.82861 -85.83807 35001 ft 468 kts 163°
2026-04-29 08:21 36.76637 -85.81469 35001 ft 468 kts 163°
2026-04-29 08:21 36.71440 -85.79520 35000 ft 468 kts 163°
2026-04-29 08:22 36.65215 -85.77190 35000 ft 468 kts 163°
2026-04-29 08:22 36.58983 -85.74861 35000 ft 468 kts 163°
2026-04-29 08:23 36.52772 -85.72543 35001 ft 468 kts 163°
2026-04-29 08:23 36.46523 -85.70215 35001 ft 468 kts 163°
2026-04-29 08:24 36.40298 -85.67900 35001 ft 468 kts 163°
2026-04-29 08:24 36.34061 -85.65585 35001 ft 468 kts 163°
2026-04-29 08:25 36.27835 -85.63277 35001 ft 468 kts 163°
2026-04-29 08:25 36.21598 -85.60969 35001 ft 468 kts 163°
2026-04-29 08:26 36.15371 -85.58669 35001 ft 468 kts 163°
2026-04-29 08:26 36.09146 -85.56373 35000 ft 468 kts 163°
2026-04-29 08:27 36.02907 -85.54076 35000 ft 468 kts 163°
2026-04-29 08:27 35.96675 -85.51785 35000 ft 468 kts 163°
2026-04-29 08:28 35.90438 -85.49496 35001 ft 468 kts 163°
2026-04-29 08:28 35.84211 -85.47215 35001 ft 468 kts 163°
2026-04-29 08:29 35.77966 -85.44931 35001 ft 468 kts 163°
2026-04-29 08:29 35.71725 -85.42652 35001 ft 468 kts 163°
2026-04-29 08:30 35.62373 -85.39244 35001 ft 468 kts 163°
2026-04-29 08:31 35.56141 -85.36977 35001 ft 468 kts 163°
2026-04-29 08:31 35.49901 -85.34711 35001 ft 468 kts 163°
2026-04-29 08:32 35.43673 -85.32453 35001 ft 468 kts 163°
2026-04-29 08:32 35.37428 -85.30193 35001 ft 468 kts 163°
2026-04-29 08:33 35.31199 -85.27942 35001 ft 468 kts 163°
2026-04-29 08:33 35.24949 -85.25688 35001 ft 468 kts 163°
2026-04-29 08:34 35.18717 -85.23443 35001 ft 468 kts 163°
2026-04-29 08:34 35.12477 -85.21199 35001 ft 468 kts 163°
2026-04-29 08:35 35.06239 -85.18960 35000 ft 468 kts 163°
2026-04-29 08:35 35.00010 -85.16727 35000 ft 468 kts 163°
2026-04-29 08:36 34.93804 -85.14346 34998 ft 468 kts 157°
2026-04-29 08:36 34.87819 -85.11228 35001 ft 468 kts 158°
2026-04-29 08:37 34.81790 -85.08269 35000 ft 468 kts 158°
2026-04-29 08:37 34.75756 -85.05304 35000 ft 468 kts 158°
2026-04-29 08:38 34.69729 -85.02346 35000 ft 468 kts 158°
2026-04-29 08:38 34.63693 -84.99388 35000 ft 468 kts 158°
2026-04-29 08:39 34.57664 -84.96439 35001 ft 468 kts 158°
2026-04-29 08:39 34.51632 -84.93492 35001 ft 468 kts 158°
2026-04-29 08:40 34.45607 -84.90553 35001 ft 468 kts 158°
2026-04-29 08:40 34.39561 -84.87610 35001 ft 468 kts 158°
2026-04-29 08:41 34.33524 -84.84674 35001 ft 468 kts 158°
2026-04-29 08:41 34.27479 -84.81740 35001 ft 468 kts 158°
2026-04-29 08:42 34.21444 -84.78815 35001 ft 468 kts 158°
2026-04-29 08:42 34.15394 -84.75887 35001 ft 468 kts 158°
2026-04-29 08:43 34.09352 -84.72968 35001 ft 468 kts 158°
2026-04-29 08:43 34.03303 -84.70049 35000 ft 468 kts 158°
2026-04-29 08:44 33.97262 -84.67139 35000 ft 468 kts 158°
2026-04-29 08:44 33.91215 -84.64231 35000 ft 468 kts 158°
2026-04-29 08:45 33.85173 -84.61329 35000 ft 468 kts 158°
2026-04-29 08:45 33.79118 -84.58426 35001 ft 468 kts 158°
2026-04-29 08:46 33.73077 -84.55534 35001 ft 468 kts 158°
2026-04-29 08:46 33.67020 -84.52638 35001 ft 468 kts 158°
2026-04-29 08:47 33.60977 -84.49753 35001 ft 468 kts 158°
2026-04-29 08:47 33.54925 -84.46869 35001 ft 468 kts 158°
2026-04-29 08:48 33.48881 -84.43993 35001 ft 468 kts 158°
2026-04-29 08:48 33.42820 -84.41113 35000 ft 468 kts 158°
2026-04-29 08:49 33.36775 -84.38245 35000 ft 468 kts 158°
2026-04-29 08:49 33.30730 -84.35381 35000 ft 468 kts 158°
2026-04-29 08:50 33.24669 -84.32514 35000 ft 468 kts 158°
2026-04-29 08:50 33.18608 -84.29652 35001 ft 468 kts 158°
2026-04-29 08:51 33.12558 -84.26799 35001 ft 468 kts 158°
2026-04-29 08:51 33.06502 -84.23947 35001 ft 468 kts 158°
2026-04-29 08:52 33.00453 -84.21103 35001 ft 468 kts 158°
2026-04-29 08:52 32.94390 -84.18256 35001 ft 468 kts 158°
2026-04-29 08:53 32.88335 -84.15417 35001 ft 468 kts 158°
2026-04-29 08:53 32.82272 -84.12579 35001 ft 468 kts 158°
2026-04-29 08:54 32.76221 -84.09750 35001 ft 468 kts 158°
2026-04-29 08:54 32.70156 -84.06919 35001 ft 468 kts 158°
2026-04-29 08:55 32.64100 -84.04097 35001 ft 468 kts 158°
2026-04-29 08:55 32.58035 -84.01274 35000 ft 468 kts 159°
2026-04-29 08:56 32.51984 -83.98462 35000 ft 468 kts 159°
2026-04-29 08:56 32.45913 -83.95645 35000 ft 468 kts 159°
2026-04-29 08:57 32.39858 -83.92839 35001 ft 468 kts 159°
2026-04-29 08:57 32.33756 -83.90133 35002 ft 468 kts 161°
2026-04-29 08:58 32.27600 -83.87669 34995 ft 468 kts 161°
2026-04-29 08:58 32.24530 -83.86424 34525 ft 466 kts 161°
2026-04-29 08:58 32.21469 -83.85182 33934 ft 465 kts 161°
2026-04-29 08:58 32.18424 -83.83948 33328 ft 463 kts 161°
2026-04-29 08:59 32.15381 -83.82716 32704 ft 463 kts 161°
2026-04-29 08:59 32.12337 -83.81484 32073 ft 462 kts 161°
2026-04-29 08:59 32.09300 -83.80255 31450 ft 461 kts 161°
2026-04-29 08:59 32.06277 -83.79034 30811 ft 460 kts 161°
2026-04-29 09:00 32.03267 -83.77818 30168 ft 458 kts 161°
2026-04-29 09:00 32.00255 -83.76602 29527 ft 457 kts 161°
2026-04-29 09:00 31.97236 -83.75385 28870 ft 462 kts 161°
2026-04-29 09:00 31.94174 -83.74151 28195 ft 468 kts 161°
2026-04-29 09:01 31.91102 -83.72913 27503 ft 470 kts 161°
2026-04-29 09:01 31.88004 -83.71667 26884 ft 471 kts 161°
2026-04-29 09:01 31.84902 -83.70419 26297 ft 471 kts 161°
2026-04-29 09:01 31.81823 -83.69182 25712 ft 467 kts 161°
2026-04-29 09:02 31.78765 -83.67953 25142 ft 463 kts 161°
2026-04-29 09:02 31.75734 -83.66737 24571 ft 459 kts 161°
2026-04-29 09:02 31.72736 -83.65534 24004 ft 455 kts 161°
2026-04-29 09:02 31.69747 -83.64337 23436 ft 451 kts 161°
2026-04-29 09:03 31.66794 -83.63154 22871 ft 447 kts 161°
2026-04-29 09:03 31.63857 -83.61978 22306 ft 444 kts 161°
2026-04-29 09:03 31.60958 -83.60819 21745 ft 440 kts 161°
2026-04-29 09:03 31.58073 -83.59666 21184 ft 436 kts 161°
2026-04-29 09:04 31.55213 -83.58523 20624 ft 433 kts 161°
2026-04-29 09:04 31.52374 -83.57390 20064 ft 429 kts 161°
2026-04-29 09:04 31.49562 -83.56268 19507 ft 426 kts 161°
2026-04-29 09:04 31.46779 -83.55158 18951 ft 422 kts 161°
2026-04-29 09:05 31.44009 -83.54055 18395 ft 419 kts 161°
2026-04-29 09:05 31.41263 -83.52961 17827 ft 415 kts 161°
2026-04-29 09:05 31.38552 -83.51883 17206 ft 412 kts 161°
2026-04-29 09:05 31.35850 -83.50808 16590 ft 408 kts 161°
2026-04-29 09:06 31.33177 -83.49745 15978 ft 403 kts 161°
2026-04-29 09:06 31.30535 -83.48696 15368 ft 399 kts 161°
2026-04-29 09:06 31.27918 -83.47657 14760 ft 395 kts 161°
2026-04-29 09:06 31.25322 -83.46693 14142 ft 391 kts 165°
2026-04-29 09:07 31.22681 -83.46004 13581 ft 386 kts 168°
2026-04-29 09:07 31.20083 -83.45347 13244 ft 375 kts 168°
2026-04-29 09:07 31.17579 -83.44803 13028 ft 361 kts 172°
2026-04-29 09:07 31.15131 -83.44438 12834 ft 347 kts 173°
2026-04-29 09:08 31.12781 -83.44090 12654 ft 333 kts 173°
2026-04-29 09:08 31.10533 -83.43758 12493 ft 319 kts 173°
2026-04-29 09:08 31.08376 -83.43440 12351 ft 306 kts 173°
2026-04-29 09:08 31.06319 -83.43136 12242 ft 293 kts 173°
2026-04-29 09:09 31.04325 -83.42842 12016 ft 286 kts 173°
2026-04-29 09:09 31.02367 -83.42553 11685 ft 283 kts 173°
2026-04-29 09:09 31.00418 -83.42266 11321 ft 282 kts 173°
2026-04-29 09:09 30.98487 -83.41982 10971 ft 280 kts 173°
2026-04-29 09:10 30.96558 -83.41698 10622 ft 279 kts 173°
2026-04-29 09:10 30.94640 -83.41416 10278 ft 277 kts 173°
2026-04-29 09:10 30.92733 -83.41135 9938 ft 276 kts 173°
2026-04-29 09:10 30.90839 -83.40857 9603 ft 274 kts 173°
2026-04-29 09:11 30.88951 -83.40580 9271 ft 273 kts 173°
2026-04-29 09:11 30.87078 -83.40304 8944 ft 272 kts 173°
2026-04-29 09:11 30.85198 -83.40029 8619 ft 270 kts 173°
2026-04-29 09:11 30.83342 -83.39756 8300 ft 269 kts 173°
2026-04-29 09:12 30.81489 -83.39484 7983 ft 268 kts 173°
2026-04-29 09:12 30.79644 -83.39214 7670 ft 267 kts 173°
2026-04-29 09:12 30.77819 -83.38947 7363 ft 265 kts 173°
2026-04-29 09:12 30.75987 -83.38678 7057 ft 264 kts 173°
2026-04-29 09:13 30.74165 -83.38412 6755 ft 263 kts 173°
2026-04-29 09:13 30.72353 -83.38146 6457 ft 262 kts 173°
2026-04-29 09:13 30.70549 -83.37883 6163 ft 261 kts 173°
2026-04-29 09:13 30.68759 -83.37621 5872 ft 260 kts 173°
2026-04-29 09:14 30.66969 -83.37359 5585 ft 259 kts 173°
2026-04-29 09:14 30.65187 -83.37099 5301 ft 258 kts 173°
2026-04-29 09:14 30.63421 -83.36841 5022 ft 257 kts 173°
2026-04-29 09:14 30.61652 -83.36583 4745 ft 256 kts 173°
2026-04-29 09:15 30.59891 -83.36326 4472 ft 255 kts 173°
2026-04-29 09:15 30.58138 -83.36070 4202 ft 254 kts 173°
2026-04-29 09:15 30.56396 -83.35817 3935 ft 253 kts 173°
2026-04-29 09:15 30.54655 -83.35563 3672 ft 252 kts 173°
2026-04-29 09:16 30.52924 -83.35311 3412 ft 251 kts 173°
2026-04-29 09:16 30.51199 -83.35037 3146 ft 250 kts 169°
2026-04-29 09:16 30.49655 -83.34145 2852 ft 248 kts 140°
2026-04-29 09:16 30.48954 -83.33125 2789 ft 242 kts 120°
2026-04-29 09:17 30.48552 -83.31272 2587 ft 238 kts 91°
2026-04-29 09:17 30.48857 -83.29407 2382 ft 236 kts 75°
2026-04-29 09:17 30.49336 -83.27589 2140 ft 236 kts 72°
2026-04-29 09:17 30.49898 -83.25809 2015 ft 236 kts 61°
2026-04-29 09:18 30.51039 -83.24448 2018 ft 235 kts 39°
2026-04-29 09:18 30.52342 -83.23379 1983 ft 226 kts 27°
2026-04-29 09:18 30.53830 -83.23009 2001 ft 215 kts
2026-04-29 09:18 30.55303 -83.23073 2029 ft 209 kts 355°
2026-04-29 09:19 30.56753 -83.23299 2020 ft 211 kts 351°
2026-04-29 09:19 30.58196 -83.23586 2006 ft 211 kts 350°
2026-04-29 09:19 30.59643 -83.23880 2002 ft 211 kts 350°
2026-04-29 09:19 30.61062 -83.24160 2000 ft 203 kts 350°
2026-04-29 09:20 30.62442 -83.24424 2000 ft 201 kts 351°
2026-04-29 09:20 30.63822 -83.24683 2000 ft 201 kts 351°
2026-04-29 09:20 30.65196 -83.24938 1999 ft 201 kts 351°
2026-04-29 09:20 30.66578 -83.25194 1997 ft 201 kts 351°
2026-04-29 09:21 30.67950 -83.25449 1987 ft 194 kts 351°
2026-04-29 09:21 30.69213 -83.25683 1787 ft 175 kts 351°
2026-04-29 09:21 30.70359 -83.25897 1552 ft 159 kts 351°
2026-04-29 09:21 30.71390 -83.26090 1358 ft 141 kts 351°
2026-04-29 09:22 30.72345 -83.26269 1223 ft 139 kts 351°
2026-04-29 09:22 30.73296 -83.26447 1043 ft 138 kts 351°
2026-04-29 09:22 30.74241 -83.26623 857 ft 138 kts 351°
2026-04-29 09:22 30.75187 -83.26800 674 ft 137 kts 351°
2026-04-29 09:23 30.76126 -83.26976 494 ft 137 kts 351°
2026-04-29 09:23 30.77070 -83.27152 309 ft 137 kts 351°
2026-04-29 09:23 30.77987 -83.27325 217 ft 127 kts 351°
2026-04-29 09:23 30.78616 -83.27444 214 ft 52 kts 351°
2026-04-29 09:24 30.78775 -83.27473 214 ft 10 kts 351°
2026-04-29 09:24 30.78842 -83.27485 214 ft 10 kts 351°
2026-04-29 09:24 30.78914 -83.27498 214 ft 11 kts 351°
2026-04-29 09:24 30.78986 -83.27485 214 ft 9 kts 56°
2026-04-29 09:25 30.78977 -83.27410 214 ft 10 kts 111°
2026-04-29 09:25 30.78937 -83.27367 214 ft 2 kts 161°
2026-04-29 09:25 30.78932 -83.27365 214 ft 0 kts 167°
2026-04-29 09:25 30.78929 -83.27364 214 ft 1 kts 167°
2026-04-29 09:26 30.78922 -83.27363 214 ft 2 kts 167°
2026-04-29 09:26 30.78879 -83.27354 214 ft 10 kts 171°
2026-04-29 09:26 30.78802 -83.27339 214 ft 10 kts 171°
2026-04-29 09:26 30.78750 -83.27301 214 ft 9 kts 101°
2026-04-29 09:27 30.78748 -83.27282 214 ft 0 kts 92°
2026-04-29 09:27 30.78748 -83.27281 214 ft 0 kts 92°
2026-04-29 09:27 30.78748 -83.27276 214 ft 2 kts 86°
2026-04-29 09:27 30.78749 -83.27265 214 ft 1 kts 82°
2026-04-29 09:28 30.78750 -83.27257 214 ft 0 kts 82°